Location: Kershaw
(34.5481°N, 80.5823°W)
Time: 16:01:04
(UTC+00:00)

Vanguard 1 Rocket - Pass Details

Date: 01 October 2022
Orbit: 650 x 4225 km, 34.3° (Epoch: 08 December)

Event Time Altitude Azimuth Distance (km) Brightness Sun altitude
Rises 02:43:52 0° 257° (WSW) 7,678 12.6 -43.4°
Reaches altitude 10° 02:49:47 10° 257° (WSW) 6,176 11.9 -44.4°
Enters shadow 03:03:42 59° 253° (WSW) 2,430 9.4 -46.7°
Maximum altitude 03:06:53 85° 172° (S) 1,911 - -47.2°
Drops below altitude 10° 03:15:11 10° 84° (E) 3,225 - -48.5°
Sets 03:17:19 0° 84° (E) 3,924 - -48.8°
